Location: Canet
(43.3261°N, 5.3723°E)
Time: 16:52:14
(UTC+00:00)

Envisat - Pass Details

Date: 30 September 2021
Orbit: 764 x 766 km, 98.2° (Epoch: 19 October)

Event Time Altitude Azimuth Distance (km) Brightness Sun altitude
Rises 04:11:25 0° 21° (NNE) 3,240 6.7 -15.9°
Reaches altitude 10° 04:13:55 10° 30° (NNE) 2,309 6.0 -15.5°
Maximum altitude 04:18:37 37° 97° (E) 1,179 4.6 -14.6°
Drops below altitude 10° 04:23:16 10° 164° (SSE) 2,293 5.6 -13.8°
Sets 04:25:43 0° 173° (S) 3,214 6.2 -13.4°
